map of EBBE home
Great Circle Mapper logo
EBBE - Airport
Location
City:  Beauvechain, Brabant Wallon (Walloon Brabant), Belgium
ICAO:EBBE

Details
Type:Airport (Aerodrome, Airfield)
Use:Military
Latitude:5045'28"N (50.757778)
Longitude:446'01"E (4.766944)
Elevation:370 ft (113 m)
Variation:1.01E (WMM2015 magnetic declination)
0.14 annual change
Runways:2
Longest:10085 × 148 ft (3074 × 45 m), paved

Time
Time Zone:UTC+1 (DST+2)
Local Time:

Weather
METAR:EBBE 252255Z AUTO 20005KT 9999 NCD 12/10 Q1018 BLU

Related Locations
Nearby:
Farthest:CHT: 11947 mi / 19226 km
Waitangi [Tuuta], Chatham Islands, NZ

Find:

   beyond  
but within

Other Information
Maps:
NOTAMs:
Links:
Sources:

  
flag of Belgium
flag of Brabant Wallon (Walloon Brabant)
  

Airport Diagram

Airport diagram for EBBE

Airport diagram (OBSOLETE) from NGA

Sectional Chart

Flight Planning
at skyvector.com

Satellite Image

Google Maps Satellite view

 

Copyright © 2004-2016 Karl L. Swartz. All rights reserved.
The Great Circle Mapper name and logo are trademarks of the Great Circle Mapper.
All other trademarks mentioned herein belong to their respective owners.
Please see credits for attibutions and further copyright information.

  Follow gcmap on Facebook Follow gcmap on Twitter Follow gcmap on Google+ GCmap on LinkedIn

hCard Microformat

Geo Microformat